Time,TemperatureF,DewpointF,PressureIn,WindDirection,WindDirectionDegrees,WindSpeedMPH,WindSpeedGustMPH,Humidity,HourlyPrecipIn,Conditions,Clouds,dailyrainin,SoftwareType,DateUTC
2013-06-08 00:02:00,58.0,32.0,29.96,SSE,158,1.0,3.0,37,0.00,,,0.00,,2013-06-08 07:02:00,
2013-06-08 00:22:00,58.0,32.0,29.96,SSE,158,1.0,2.0,37,0.00,,,0.00,,2013-06-08 07:22:00,
2013-06-08 00:32:00,56.0,31.0,29.96,ESE,112,2.0,3.0,38,0.00,,,0.00,,2013-06-08 07:32:00,
2013-06-08 00:42:00,56.0,31.0,29.96,ESE,112,2.0,3.0,38,0.00,,,0.00,,2013-06-08 07:42:00,
2013-06-08 00:52:00,56.0,31.0,29.96,ESE,112,2.0,3.0,38,0.00,,,0.00,,2013-06-08 07:52:00,
2013-06-08 01:02:00,57.0,32.0,29.96,NW,315,0.0,2.0,39,0.00,,,0.00,,2013-06-08 08:02:00,
2013-06-08 01:22:00,56.0,31.0,29.96,ESE,112,2.0,3.0,39,0.00,,,0.00,,2013-06-08 08:22:00,
2013-06-08 01:32:00,56.0,31.0,29.96,WNW,292,3.0,6.0,39,0.00,,,0.00,,2013-06-08 08:32:00,
2013-06-08 01:42:00,56.0,31.0,29.96,WNW,292,3.0,6.0,39,0.00,,,0.00,,2013-06-08 08:42:00,
2013-06-08 01:52:00,55.0,31.0,29.96,ESE,112,2.0,3.0,39,0.00,,,0.00,,2013-06-08 08:52:00,
2013-06-08 02:02:00,55.0,31.0,29.96,SSW,202,1.0,2.0,40,0.00,,,0.00,,2013-06-08 09:02:00,
2013-06-08 02:22:00,55.0,31.0,29.96,West,270,1.0,2.0,40,0.00,,,0.00,,2013-06-08 09:22:00,
2013-06-08 02:33:00,54.0,30.0,29.96,WSW,251,1.0,3.0,40,0.00,,,0.00,,2013-06-08 09:33:00,
2013-06-08 02:42:00,54.0,30.0,29.96,WSW,251,1.0,3.0,40,0.00,,,0.00,,2013-06-08 09:42:00,
2013-06-08 02:52:00,54.0,30.0,29.96,NNW,338,1.0,5.0,40,0.00,,,0.00,,2013-06-08 09:52:00,
2013-06-08 03:02:00,53.0,30.0,29.96,SE,135,3.0,3.0,41,0.00,,,0.00,,2013-06-08 10:02:00,
2013-06-08 03:22:00,53.0,30.0,29.96,ESE,112,3.0,5.0,41,0.00,,,0.00,,2013-06-08 10:22:00,
2013-06-08 03:33:00,52.0,30.0,29.96,ESE,123,3.0,5.0,42,0.00,,,0.00,,2013-06-08 10:33:00,
2013-06-08 03:42:00,52.0,30.0,29.96,ESE,123,3.0,5.0,42,0.00,,,0.00,,2013-06-08 10:42:00,
2013-06-08 03:52:00,52.0,30.0,29.96,SSE,152,3.0,5.0,42,0.00,,,0.00,,2013-06-08 10:52:00,
2013-06-08 04:02:00,51.0,29.0,29.96,SSE,158,3.0,3.0,43,0.00,,,0.00,,2013-06-08 11:02:00,
2013-06-08 04:12:00,51.0,29.0,29.96,SSE,158,3.0,3.0,43,0.00,,,0.00,,2013-06-08 11:12:00,
2013-06-08 04:22:00,51.0,30.0,29.96,SE,138,2.0,3.0,44,0.00,,,0.00,,2013-06-08 11:22:00,
2013-06-08 04:32:00,51.0,30.0,29.96,SE,135,3.0,3.0,44,0.00,,,0.00,,2013-06-08 11:32:00,
2013-06-08 04:42:00,51.0,30.0,29.96,SE,135,3.0,3.0,44,0.00,,,0.00,,2013-06-08 11:42:00,
2013-06-08 04:52:00,50.0,29.0,29.96,SSE,158,3.0,5.0,45,0.00,,,0.00,,2013-06-08 11:52:00,
2013-06-08 05:02:00,50.0,29.0,29.96,SSE,158,3.0,3.0,45,0.00,,,0.00,,2013-06-08 12:02:00,
2013-06-08 05:12:00,50.0,29.0,29.96,SSE,158,3.0,3.0,45,0.00,,,0.00,,2013-06-08 12:12:00,
2013-06-08 05:22:00,50.0,29.0,29.96,SSE,158,3.0,5.0,45,0.00,,,0.00,,2013-06-08 12:22:00,
2013-06-08 05:32:00,50.0,29.0,29.96,SSE,158,3.0,5.0,45,0.00,,,0.00,,2013-06-08 12:32:00,
2013-06-08 05:42:00,50.0,29.0,29.96,SSE,158,3.0,5.0,45,0.00,,,0.00,,2013-06-08 12:42:00,
2013-06-08 05:52:00,51.0,30.0,29.96,SSE,158,4.0,6.0,45,0.00,,,0.00,,2013-06-08 12:52:00,
2013-06-08 06:02:00,51.0,31.0,29.96,SSE,158,2.0,3.0,46,0.00,,,0.00,,2013-06-08 13:02:00,
2013-06-08 06:12:00,51.0,31.0,29.96,SSE,158,2.0,3.0,46,0.00,,,0.00,,2013-06-08 13:12:00,
2013-06-08 06:22:00,52.0,31.0,29.96,SSW,202,2.0,3.0,45,0.00,,,0.00,,2013-06-08 13:22:00,
2013-06-08 06:32:00,60.0,37.0,29.96,SSE,151,3.0,5.0,42,0.00,,,0.00,,2013-06-08 13:32:00,
2013-06-08 06:42:00,60.0,37.0,29.96,SSE,151,3.0,5.0,42,0.00,,,0.00,,2013-06-08 13:42:00,
2013-06-08 06:52:00,64.0,38.0,29.96,West,264,2.0,5.0,38,0.00,,,0.00,,2013-06-08 13:52:00,
2013-06-08 07:02:00,73.0,43.0,29.96,SE,136,2.0,5.0,34,0.00,,,0.00,,2013-06-08 14:02:00,
2013-06-08 07:21:00,75.0,43.0,29.96,SSE,152,3.0,3.0,32,0.00,,,0.00,,2013-06-08 14:21:00,
2013-06-08 07:32:00,77.0,43.0,29.96,SSE,148,2.0,6.0,30,0.00,,,0.00,,2013-06-08 14:32:00,
2013-06-08 07:42:00,77.0,43.0,29.96,SSE,148,2.0,6.0,30,0.00,,,0.00,,2013-06-08 14:42:00,
2013-06-08 07:52:00,78.0,43.0,29.96,SSE,158,3.0,6.0,29,0.00,,,0.00,,2013-06-08 14:52:00,
2013-06-08 08:02:00,79.0,41.0,29.96,SE,129,5.0,7.0,26,0.00,,,0.00,,2013-06-08 15:02:00,
2013-06-08 08:22:00,78.0,39.0,29.96,SE,145,6.0,7.0,25,0.00,,,0.00,,2013-06-08 15:22:00,
2013-06-08 08:32:00,78.0,39.0,29.96,SSE,154,3.0,6.0,25,0.00,,,0.00,,2013-06-08 15:32:00,
2013-06-08 08:42:00,78.0,39.0,29.96,SSE,154,3.0,6.0,25,0.00,,,0.00,,2013-06-08 15:42:00,
2013-06-08 08:53:00,78.0,38.0,29.96,SE,126,4.0,8.0,24,0.00,,,0.00,,2013-06-08 15:53:00,
2013-06-08 09:02:00,77.0,37.0,29.96,WSW,257,2.0,3.0,24,0.00,,,0.00,,2013-06-08 16:02:00,
2013-06-08 09:23:00,77.0,37.0,29.96,NW,322,3.0,6.0,24,0.00,,,0.00,,2013-06-08 16:23:00,
2013-06-08 09:32:00,74.0,35.0,29.96,West,276,4.0,7.0,24,0.00,,,0.00,,2013-06-08 16:32:00,
2013-06-08 09:42:00,74.0,35.0,29.96,West,276,4.0,7.0,24,0.00,,,0.00,,2013-06-08 16:42:00,
2013-06-08 09:53:00,73.0,35.0,29.96,WNW,287,5.0,10.0,25,0.00,,,0.00,,2013-06-08 16:53:00,
2013-06-08 10:02:00,73.0,35.0,29.96,West,265,5.0,8.0,25,0.00,,,0.00,,2013-06-08 17:02:00,
2013-06-08 10:12:00,73.0,35.0,29.96,West,265,5.0,8.0,25,0.00,,,0.00,,2013-06-08 17:12:00,
2013-06-08 10:22:00,73.0,33.0,29.96,NNW,336,5.0,7.0,23,0.00,,,0.00,,2013-06-08 17:22:00,
2013-06-08 10:32:00,74.0,34.0,29.96,WSW,249,4.0,8.0,23,0.00,,,0.00,,2013-06-08 17:32:00,
2013-06-08 10:42:00,74.0,34.0,29.96,WSW,249,4.0,8.0,23,0.00,,,0.00,,2013-06-08 17:42:00,
2013-06-08 10:52:00,75.0,35.0,29.96,WSW,239,4.0,8.0,23,0.00,,,0.00,,2013-06-08 17:52:00,
2013-06-08 11:02:00,75.0,35.0,29.96,WNW,303,3.0,7.0,23,0.00,,,0.00,,2013-06-08 18:02:00,
2013-06-08 11:12:00,75.0,35.0,29.96,WNW,303,3.0,7.0,23,0.00,,,0.00,,2013-06-08 18:12:00,
2013-06-08 11:22:00,75.0,34.0,29.96,West,264,4.0,7.0,22,0.00,,,0.00,,2013-06-08 18:22:00,
2013-06-08 11:32:00,76.0,34.0,29.96,WNW,292,4.0,8.0,22,0.00,,,0.00,,2013-06-08 18:32:00,
2013-06-08 11:41:00,76.0,34.0,29.96,WNW,292,4.0,8.0,22,0.00,,,0.00,,2013-06-08 18:41:00,
2013-06-08 11:52:00,77.0,35.0,29.96,NW,310,2.0,8.0,22,0.00,,,0.00,,2013-06-08 18:52:00,
2013-06-08 12:02:00,77.0,34.0,29.96,NW,309,5.0,8.0,21,0.00,,,0.00,,2013-06-08 19:02:00,
2013-06-08 12:12:00,77.0,34.0,29.96,NW,309,5.0,8.0,21,0.00,,,0.00,,2013-06-08 19:12:00,
2013-06-08 12:22:00,77.0,34.0,29.96,NW,309,5.0,8.0,21,0.00,,,0.00,,2013-06-08 19:22:00,
2013-06-08 12:32:00,78.0,35.0,29.93,NW,317,7.0,12.0,21,0.00,,,0.00,,2013-06-08 19:32:00,
2013-06-08 12:42:00,78.0,35.0,29.93,NW,317,7.0,12.0,21,0.00,,,0.00,,2013-06-08 19:42:00,
2013-06-08 12:53:00,78.0,35.0,29.93,WNW,303,9.0,10.0,21,0.00,,,0.00,,2013-06-08 19:53:00,
2013-06-08 13:02:00,79.0,36.0,29.93,NW,325,6.0,10.0,21,0.00,,,0.00,,2013-06-08 20:02:00,
2013-06-08 13:11:00,79.0,36.0,29.93,NW,325,6.0,10.0,21,0.00,,,0.00,,2013-06-08 20:11:00,
2013-06-08 13:22:00,79.0,34.0,29.93,WNW,287,6.0,13.0,20,0.00,,,0.00,,2013-06-08 20:22:00,
2013-06-08 13:32:00,80.0,35.0,29.93,WSW,257,5.0,9.0,20,0.00,,,0.00,,2013-06-08 20:32:00,
2013-06-08 13:42:00,80.0,35.0,29.93,WSW,257,5.0,9.0,20,0.00,,,0.00,,2013-06-08 20:42:00,
2013-06-08 13:52:00,80.0,35.0,29.93,West,271,7.0,10.0,20,0.00,,,0.00,,2013-06-08 20:52:00,
2013-06-08 14:02:00,80.0,35.0,29.93,West,280,6.0,13.0,20,0.00,,,0.00,,2013-06-08 21:02:00,
2013-06-08 14:12:00,80.0,35.0,29.93,West,280,6.0,13.0,20,0.00,,,0.00,,2013-06-08 21:12:00,
2013-06-08 14:22:00,80.0,35.0,29.93,NW,318,9.0,12.0,20,0.00,,,0.00,,2013-06-08 21:22:00,
2013-06-08 14:33:00,80.0,35.0,29.93,NW,314,7.0,14.0,20,0.00,,,0.00,,2013-06-08 21:33:00,
2013-06-08 14:43:00,80.0,35.0,29.93,NW,314,7.0,14.0,20,0.00,,,0.00,,2013-06-08 21:43:00,
2013-06-08 14:52:00,80.0,35.0,29.93,WNW,300,6.0,9.0,20,0.00,,,0.00,,2013-06-08 21:52:00,
2013-06-08 15:02:00,81.0,36.0,29.93,WNW,297,8.0,17.0,20,0.00,,,0.00,,2013-06-08 22:02:00,
2013-06-08 15:12:00,81.0,36.0,29.93,WNW,297,8.0,17.0,20,0.00,,,0.00,,2013-06-08 22:12:00,
2013-06-08 15:22:00,82.0,37.0,29.93,WNW,292,5.0,13.0,20,0.00,,,0.00,,2013-06-08 22:22:00,
2013-06-08 15:33:00,82.0,36.0,29.93,WSW,258,7.0,13.0,19,0.00,,,0.00,,2013-06-08 22:33:00,
2013-06-08 15:42:00,82.0,37.0,29.93,NW,305,8.0,10.0,20,0.00,,,0.00,,2013-06-08 22:42:00,
2013-06-08 15:52:00,82.0,37.0,29.93,NW,305,8.0,10.0,20,0.00,,,0.00,,2013-06-08 22:52:00,
2013-06-08 16:02:00,82.0,36.0,29.90,NW,312,10.0,14.0,19,0.00,,,0.00,,2013-06-08 23:02:00,
2013-06-08 16:12:00,82.0,36.0,29.90,NW,312,10.0,14.0,19,0.00,,,0.00,,2013-06-08 23:12:00,
2013-06-08 16:22:00,82.0,37.0,29.90,NW,320,12.0,20.0,20,0.00,,,0.00,,2013-06-08 23:22:00,
2013-06-08 16:32:00,82.0,37.0,29.90,WNW,292,5.0,10.0,20,0.00,,,0.00,,2013-06-08 23:32:00,
2013-06-08 16:42:00,82.0,37.0,29.90,WNW,292,5.0,10.0,20,0.00,,,0.00,,2013-06-08 23:42:00,
2013-06-08 16:52:00,83.0,36.0,29.90,West,267,9.0,16.0,19,0.00,,,0.00,,2013-06-08 23:52:00,
2013-06-08 17:02:00,82.0,37.0,29.90,WNW,286,10.0,15.0,20,0.00,,,0.00,,2013-06-09 00:02:00,
2013-06-08 17:12:00,82.0,37.0,29.90,WNW,286,10.0,15.0,20,0.00,,,0.00,,2013-06-09 00:12:00,
2013-06-08 17:22:00,82.0,37.0,29.90,WNW,303,11.0,15.0,20,0.00,,,0.00,,2013-06-09 00:22:00,
2013-06-08 17:32:00,81.0,36.0,29.90,NW,315,12.0,17.0,20,0.00,,,0.00,,2013-06-09 00:32:00,
2013-06-08 17:42:00,81.0,36.0,29.90,NW,315,12.0,17.0,20,0.00,,,0.00,,2013-06-09 00:42:00,
2013-06-08 17:51:00,81.0,36.0,29.90,NW,311,10.0,15.0,20,0.00,,,0.00,,2013-06-09 00:51:00,
2013-06-08 18:02:00,80.0,35.0,29.90,WNW,298,9.0,13.0,20,0.00,,,0.00,,2013-06-09 01:02:00,
2013-06-08 18:11:00,80.0,35.0,29.90,WNW,298,9.0,13.0,20,0.00,,,0.00,,2013-06-09 01:11:00,
2013-06-08 18:22:00,80.0,37.0,29.90,NNW,337,10.0,14.0,21,0.00,,,0.00,,2013-06-09 01:22:00,
2013-06-08 18:32:00,79.0,36.0,29.90,WNW,291,10.0,14.0,21,0.00,,,0.00,,2013-06-09 01:32:00,
2013-06-08 18:42:00,79.0,36.0,29.90,WNW,291,10.0,14.0,21,0.00,,,0.00,,2013-06-09 01:42:00,
2013-06-08 18:52:00,79.0,36.0,29.90,WNW,298,7.0,14.0,21,0.00,,,0.00,,2013-06-09 01:52:00,
2013-06-08 19:02:00,78.0,35.0,29.90,WNW,303,10.0,13.0,21,0.00,,,0.00,,2013-06-09 02:02:00,
2013-06-08 19:12:00,78.0,35.0,29.90,WNW,303,10.0,13.0,21,0.00,,,0.00,,2013-06-09 02:12:00,
2013-06-08 19:22:00,78.0,35.0,29.90,WNW,298,10.0,13.0,21,0.00,,,0.00,,2013-06-09 02:22:00,
2013-06-08 19:32:00,77.0,34.0,29.90,WNW,292,10.0,13.0,21,0.00,,,0.00,,2013-06-09 02:32:00,
2013-06-08 19:42:00,77.0,34.0,29.90,WNW,292,10.0,13.0,21,0.00,,,0.00,,2013-06-09 02:42:00,
2013-06-08 19:52:00,76.0,34.0,29.90,NW,308,8.0,13.0,22,0.00,,,0.00,,2013-06-09 02:52:00,
2013-06-08 20:02:00,75.0,35.0,29.90,NW,320,8.0,13.0,23,0.00,,,0.00,,2013-06-09 03:02:00,
2013-06-08 20:12:00,75.0,35.0,29.90,NW,320,8.0,13.0,23,0.00,,,0.00,,2013-06-09 03:12:00,
2013-06-08 20:22:00,74.0,34.0,29.90,WNW,299,9.0,13.0,23,0.00,,,0.00,,2013-06-09 03:22:00,
2013-06-08 20:32:00,73.0,33.0,29.90,WNW,292,9.0,13.0,23,0.00,,,0.00,,2013-06-09 03:32:00,
2013-06-08 20:43:00,73.0,33.0,29.90,WNW,292,9.0,13.0,23,0.00,,,0.00,,2013-06-09 03:43:00,
2013-06-08 20:53:00,72.0,33.0,29.90,NW,305,6.0,10.0,24,0.00,,,0.00,,2013-06-09 03:53:00,
2013-06-08 21:02:00,71.0,32.0,29.90,WNW,292,4.0,7.0,24,0.00,,,0.00,,2013-06-09 04:02:00,
2013-06-08 21:22:00,71.0,32.0,29.90,WNW,292,3.0,6.0,24,0.00,,,0.00,,2013-06-09 04:22:00,
2013-06-08 21:32:00,69.0,32.0,29.90,West,273,2.0,2.0,25,0.00,,,0.00,,2013-06-09 04:32:00,
2013-06-08 21:42:00,69.0,32.0,29.90,West,273,2.0,2.0,25,0.00,,,0.00,,2013-06-09 04:42:00,
2013-06-08 21:52:00,69.0,32.0,29.90,WNW,292,3.0,5.0,25,0.00,,,0.00,,2013-06-09 04:52:00,
2013-06-08 22:02:00,68.0,32.0,29.93,WNW,292,2.0,5.0,26,0.00,,,0.00,,2013-06-09 05:02:00,
2013-06-08 22:22:00,67.0,31.0,29.93,SSW,206,1.0,5.0,26,0.00,,,0.00,,2013-06-09 05:22:00,
2013-06-08 22:32:00,66.0,31.0,29.93,SSW,202,2.0,2.0,27,0.00,,,0.00,,2013-06-09 05:32:00,
2013-06-08 22:42:00,66.0,31.0,29.93,SSW,202,2.0,2.0,27,0.00,,,0.00,,2013-06-09 05:42:00,
2013-06-08 22:52:00,66.0,32.0,29.93,SSW,202,2.0,2.0,28,0.00,,,0.00,,2013-06-09 05:52:00,
2013-06-08 23:02:00,65.0,31.0,29.93,SSE,162,2.0,3.0,28,0.00,,,0.00,,2013-06-09 06:02:00,
2013-06-08 23:22:00,65.0,32.0,29.93,SSW,202,2.0,3.0,29,0.00,,,0.00,,2013-06-09 06:22:00,
2013-06-08 23:32:00,64.0,31.0,29.90,SSW,202,2.0,3.0,29,0.00,,,0.00,,2013-06-09 06:32:00,
2013-06-08 23:42:00,64.0,31.0,29.90,SSW,202,2.0,3.0,29,0.00,,,0.00,,2013-06-09 06:42:00,
2013-06-08 23:52:00,64.0,32.0,29.90,SSW,202,2.0,2.0,30,0.00,,,0.00,,2013-06-09 06:52:00,